Temperature
21 22 21 20 20 20 20 19 19 19 19 19 19 19 19 19 19 19 19 19 18 18 18 18 19 18 18 18 18 18 18 18 18 18 18 18 17 17 17 17 17 17 17
21 22 21 20 20 20 20 19 19 19 19 19 19 19 19 19 19 19 18 18 18 18 18 18 18 18 18 18 18 18 18 18 18 18 18 18 17 17 17 17 17 17 17
22 22 21 20 20 20 20 19 19 19 19 19 19 19 19 19 19 18 18 18 18 18 18 18 18 18 18 18 18 18 18 18 17 17 17 17 17 17 17 17 17 17 17
22 21 21 20 20 20 19 19 19 19 19 19 19 19 19 18 18 18 18 18 18 18 18 18 18 18 18 18 18 18 18 17 17 17 17 17 17 17 17 17 17 17 17
20 21 21 20 20 20 19 19 19 19 19 19 19 18 18 18 18 18 18 18 18 18 18 18 18 18 18 18 18 18 17 17 17 17 17 17 17 17 17 17 17 17 17
20 21 21 20 20 20 19 19 19 19 19 19 19 18 18 18 18 18 18 18 18 18 18 18 18 18 18 18 18 18 17 17 17 17 17 17 17 17 17 17 17 17 17
20 21 21 20 20 20 19 19 19 19 19 18 18 18 18 18 18 18 18 18 18 18 18 18 18 18 18 18 18 18 17 17 17 17 17 17 17 17 17 17 17 17 17
20 21 21 20 20 20 19 19 19 19 18 18 18 18 18 18 18 18 18 18 18 18 18 18 18 18 18 18 18 18 18 17 17 17 17 17 17 17 17 17 17 17 17
21 21 21 21 20 20 19 19 19 19 19 18 18 18 18 18 18 18 18 18 18 18 18 18 18 18 18 18 18 18 18 18 17 17 17 18 17 17 17 17 17 17 16
21 20 20 20 20 20 19 19 19 19 18 19 18 18 18 18 18 18 18 18 18 18 18 18 18 18 18 18 18 18 18 18 17 17 18 18 17 17 17 17 17 17 16
21 20 20 19 20 19 19 19 19 19 19 19 19 18 18 18 18 18 18 18 18 18 18 18 18 18 18 18 18 18 18 18 18 18 18 18 17 17 17 17 17 17 17
22 21 20 20 19 19 18 19 19 19 19 18 18 18 18 18 18 18 18 18 18 18 18 18 18 18 18 18 18 18 18 18 18 18 18 18 18 17 17 17 17 17 17
22 22 21 20 20 19 19 19 19 18 19 18 18 18 18 18 18 18 18 18 18 18 18 18 18 18 18 18 18 18 18 18 18 18 18 18 18 17 17 17 17 17 17
22 22 21 20 20 20 19 19 19 19 19 18 18 18 18 18 18 18 18 18 18 18 18 18 18 18 18 18 18 18 18 18 18 18 18 18 18 17 17 17 17 17 17
22 22 21 20 20 20 20 19 19 19 19 19 19 18 18 18 18 18 18 18 18 18 18 18 18 18 18 18 18 18 18 18 18 18 18 18 18 17 17 17 17 17 17
22 22 21 20 20 20 20 19 19 19 19 19 19 18 18 18 18 18 18 18 18 18 18 18 18 18 18 18 18 18 18 18 18 18 17 17 17 17 17 17 17 17 17
22 21 21 20 20 19 19 19 19 19 19 19 19 18 18 18 18 18 18 18 18 18 18 18 18 18 18 18 18 18 18 18 17 17 17 17 17 17 17 17 17 17 17
21 21 20 20 19 19 19 19 19 19 19 19 19 18 19 18 18 18 18 18 18 18 18 18 18 18 18 18 18 18 18 18 17 17 17 17 17 17 17 17 17 17 17
21 20 20 20 19 19 19 19 19 19 19 19 19 18 18 18 18 18 18 18 18 18 18 18 18 18 18 18 18 18 18 18 17 17 17 17 17 17 17 17 17 17 17
21 20 20 20 19 19 19 19 19 19 19 19 18 18 18 18 18 18 18 18 18 18 18 18 18 18 18 18 18 18 18 18 18 17 17 17 17 17 17 17 17 17 17
20 20 20 20 19 19 19 19 19 19 19 18 18 18 18 18 18 18 18 18 18 18 18 18 18 18 18 18 18 18 18 18 18 18 18 17 17 17 17 17 17 17 17
20 20 20 19 19 19 19 19 19 19 18 18 18 18 18 18 18 18 18 18 18 18 18 18 18 18 18 18 18 18 18 18 18 18 18 18 18 17 17 17 17 16 16
20 20 19 19 19 19 19 19 18 18 18 18 18 18 18 18 18 18 18 18 18 18 18 18 18 18 18 18 18 18 18 18 18 18 18 18 18 18 17 17 17 17 17
20 20 19 19 19 19 19 18 18 18 18 18 18 18 18 18 18 18 18 18 18 18 18 18 18 18 18 18 18 18 18 18 18 18 18 18 18 18 18 18 17 17 17
20 20 19 19 19 19 18 18 18 18 18 18 18 18 18 18 18 18 18 18 18 18 18 18 18 18 18 18 18 18 18 18 18 18 18 18 18 18 18 18 18 17 17
20 20 19 19 19 18 18 18 18 18 18 18 18 18 18 18 18 18 18 18 18 18 18 18 18 18 18 18 18 18 18 18 18 18 18 18 18 18 18 18 18 18 17
Wind_Speed
18 17 18 17 16 16 17 16 16 16 16 15 15 16 16 16 16 16 16 17 17 17 17 17 17 18 18 19 19 19 19 20 20 21 20 19 18 17 17 19 20 18 20
21 19 18 17 17 17 17 16 16 16 15 15 15 15 15 15 16 15 16 16 17 17 17 17 17 18 18 17 17 17 17 17 18 20 20 19 18 17 18 19 19 17 19
21 19 18 17 18 17 17 16 16 16 15 15 15 14 14 14 15 15 15 16 17 17 17 17 17 17 17 16 16 15 14 14 15 17 19 18 18 18 19 20 19 18 18
21 19 18 18 18 17 17 16 16 15 15 14 14 13 13 14 14 15 15 16 16 16 16 16 16 16 16 15 13 12 11 10 10 11 14 17 17 17 17 18 17 17 18
19 19 19 19 18 17 17 16 16 15 14 14 13 13 13 13 14 14 15 15 16 16 16 16 16 16 15 13 11 8 6 5 5 13 19 18 16 16 16 17 17 17 17
20 20 19 19 18 17 16 16 15 15 14 14 13 13 13 13 13 13 14 15 15 15 15 15 15 14 13 11 8 5 3 1 3 16 18 17 15 15 16 16 16 16 16
20 19 19 18 17 16 16 15 15 14 14 13 13 13 13 13 13 14 14 15 15 15 14 14 14 13 11 9 6 3 1 4 7 16 18 17 15 15 15 15 16 15 15
21 19 19 18 17 16 15 15 15 14 14 13 13 13 13 13 13 14 14 14 14 14 14 13 12 11 10 8 4 1 3 5 13 18 18 16 15 15 14 15 15 15 14
21 19 17 17 16 15 15 15 14 14 14 14 13 13 13 14 14 14 14 14 14 13 12 12 11 10 9 6 3 1 3 6 9 16 17 14 14 14 14 14 14 14 14
19 18 16 17 16 15 14 14 14 14 14 14 13 13 14 14 14 14 14 13 13 12 11 11 10 10 8 6 3 2 4 6 9 17 15 14 14 13 13 13 13 13 13
15 16 16 16 15 15 15 15 14 14 14 14 13 13 14 12 13 12 14 13 12 11 10 10 10 9 8 7 5 4 4 2 12 16 15 16 14 13 13 12 12 12 12
14 15 14 16 14 14 14 14 13 13 13 12 12 13 11 9 11 13 15 13 12 10 9 9 9 9 8 8 7 7 6 5 12 15 14 17 14 13 12 11 11 11 11
14 13 14 13 11 11 10 12 10 10 11 10 12 11 9 10 11 13 11 10 10 10 9 9 10 9 9 6 6 7 4 6 11 14 15 16 14 12 11 10 10 10 10
11 11 13 13 9 7 9 8 8 8 8 8 10 10 9 5 6 8 6 9 10 9 7 7 6 7 6 6 3 1 4 6 12 14 14 15 13 12 11 10 10 9 9
9 9 11 11 8 6 5 4 7 6 8 9 10 9 9 5 4 5 4 5 6 8 6 3 3 3 2 3 3 3 3 6 12 14 13 14 13 12 11 10 9 9 9
11 9 10 10 8 6 5 2 3 5 6 8 9 10 9 7 5 5 3 2 3 5 5 3 5 3 1 2 2 3 3 6 10 14 14 13 12 12 11 10 9 9 9
11 10 10 9 9 7 7 5 5 6 8 6 7 10 9 7 8 6 4 3 3 6 6 4 4 3 3 3 3 3 3 4 7 11 14 13 12 12 11 11 10 9 9
12 11 10 11 11 8 7 5 4 5 6 5 8 10 9 8 10 6 4 4 5 5 4 3 2 2 2 3 3 2 3 4 5 8 10 13 14 13 13 12 11 10 10
11 11 10 9 11 10 8 5 4 3 4 5 7 9 9 9 10 6 3 4 6 4 3 4 3 1 2 3 3 3 3 3 4 6 6 10 12 14 14 15 14 13 12
11 11 10 9 9 9 7 5 4 4 4 4 5 7 11 10 10 7 4 5 4 3 3 2 3 2 1 2 3 4 3 4 4 3 5 7 10 13 15 16 15 14 14
11 11 11 10 9 8 7 7 7 6 5 5 5 8 11 11 10 7 4 5 3 3 4 5 3 3 2 1 1 2 2 3 4 4 3 4 6 10 13 16 16 14 14
12 11 11 10 10 9 8 6 5 6 6 6 5 7 10 10 10 9 4 5 5 4 4 4 3 2 3 3 2 1 1 2 3 6 5 5 5 7 8 13 13 13 13
12 12 11 10 9 9 8 6 5 4 4 5 6 6 7 9 9 7 8 5 5 5 5 5 5 4 3 3 2 1 1 2 2 2 5 5 5 4 4 9 13 13 13
12 12 10 10 9 8 8 8 9 7 7 7 6 6 7 8 8 8 7 6 5 4 6 7 6 4 3 3 2 2 2 1 1 1 2 4 6 6 5 5 8 13 14
11 11 10 10 9 8 8 8 8 7 6 5 6 7 8 7 7 8 7 6 6 4 6 6 5 5 3 4 3 3 3 2 3 2 2 2 3 4 5 4 4 8 13
10 10 10 10 8 8 8 8 8 9 8 6 6 7 7 6 7 8 8 6 6 5 5 5 5 6 4 3 3 2 2 2 3 3 3 3 3 4 5 4 4 5 10
Wind_Direction
119 122 122 121 122 122 121 118 115 111 107 103 100 97 95 93 91 91 92 94 97 98 98 97 95 94 92 92 91 91 92 94 95 95 92 90 91 92 98 101 96 95 98
121 122 122 123 124 123 123 121 119 116 112 109 106 103 101 98 97 96 96 98 100 100 100 99 98 97 96 96 96 97 100 102 104 104 99 90 87 88 88 90 93 101 101
120 124 125 124 124 123 124 124 122 120 117 113 111 109 107 104 102 100 100 101 102 103 102 100 100 101 100 100 102 105 108 112 117 120 108 96 88 87 90 94 98 100 101
125 132 127 126 125 125 126 127 125 123 120 117 116 114 112 109 106 105 104 103 105 105 104 103 103 102 104 104 107 111 116 123 131 126 101 95 92 92 95 98 100 101 102
123 121 125 127 126 126 127 127 126 125 124 122 121 118 114 112 109 108 108 107 107 107 106 106 105 105 105 106 110 115 123 132 136 99 90 90 92 97 99 101 101 103 104
123 124 128 128 127 128 129 129 128 128 128 127 125 121 117 114 113 112 110 109 109 108 107 106 106 106 108 111 114 115 105 35 79 100 103 100 99 100 101 103 103 104 105
127 126 131 130 129 130 131 131 131 131 130 129 127 124 121 117 115 113 112 112 110 109 109 108 108 109 110 115 119 113 40 338 102 102 97 97 101 103 103 104 104 104 106
128 128 130 132 132 132 134 135 134 134 132 131 130 127 125 121 118 116 115 114 113 112 111 111 111 112 112 116 120 84 351 337 105 104 101 103 108 106 106 106 106 106 108
128 130 138 139 137 138 139 139 138 137 136 135 133 130 127 125 123 121 119 119 118 116 116 116 118 119 120 125 132 317 325 341 101 115 111 111 114 112 111 110 111 111 111
132 139 144 145 145 148 146 146 143 141 141 140 139 139 135 133 131 130 127 124 124 123 124 126 129 131 135 146 176 266 318 330 115 106 111 119 122 119 117 115 115 115 114
138 143 150 147 153 156 153 150 149 147 148 147 148 151 152 150 144 146 129 132 132 134 137 141 145 147 152 167 199 243 278 271 107 106 113 125 127 124 122 122 120 119 118
146 150 150 151 157 161 153 151 160 160 159 168 159 166 176 158 149 136 137 142 145 149 155 161 160 164 180 177 196 224 250 177 118 110 122 131 130 128 127 128 127 126 125
154 153 149 146 157 159 142 160 167 160 162 177 166 172 167 145 141 135 147 152 161 169 181 169 180 190 209 184 181 209 221 117 114 114 132 135 135 136 136 136 135 135 133
160 155 150 144 158 152 153 163 156 157 166 170 167 177 155 160 150 150 154 168 174 181 184 184 192 183 181 155 175 168 93 106 111 120 136 140 143 145 146 147 146 145 144
161 158 142 141 149 142 142 163 165 162 168 163 162 182 164 162 156 142 145 162 180 162 172 193 145 120 131 146 154 104 83 97 117 126 140 149 149 151 154 156 157 157 159
167 158 138 144 144 139 140 172 145 155 156 153 164 168 176 166 143 135 140 170 189 154 155 153 132 137 147 103 83 93 95 98 112 126 143 152 155 158 163 166 166 167 169
165 155 145 150 151 157 165 186 173 165 163 163 159 158 178 170 145 152 159 184 179 151 143 147 140 157 167 147 126 119 112 116 126 135 148 157 164 171 174 177 177 176 180
163 157 158 168 162 168 173 191 186 184 161 156 153 159 179 164 158 167 170 181 162 155 153 148 168 182 152 130 136 139 124 125 133 153 160 166 170 176 183 186 186 189 191
158 158 163 169 163 173 176 181 205 190 157 159 163 163 176 173 169 184 178 155 173 165 159 181 147 159 147 150 158 156 159 161 163 179 171 176 175 171 178 189 193 196 199
158 161 166 170 165 169 171 175 198 191 168 178 174 169 171 178 176 186 178 165 185 164 159 136 123 130 135 194 193 157 187 178 183 179 185 185 181 180 182 182 189 200 206
165 169 169 175 170 168 174 182 188 188 185 189 188 178 176 184 180 194 191 162 187 167 162 156 150 156 194 210 177 175 212 201 189 178 193 188 190 190 183 175 185 192 199
171 171 172 178 175 177 182 185 185 183 189 196 194 176 182 187 183 192 200 177 180 167 165 165 154 170 208 197 198 175 257 267 230 203 188 197 197 189 184 181 187 189 192
176 177 179 177 176 183 177 174 183 180 195 200 185 177 185 185 189 197 177 189 174 175 173 181 181 188 206 212 205 181 194 220 234 227 207 197 186 187 196 187 188 195 200
178 178 174 174 177 180 177 180 185 190 197 200 187 182 184 183 187 194 183 187 185 189 169 184 189 193 196 217 223 217 226 197 194 226 249 205 192 195 208 210 199 192 200
174 176 174 170 175 177 183 189 193 202 205 202 190 182 182 184 191 195 190 188 189 200 182 188 166 188 194 209 224 220 220 218 230 207 228 216 212 203 202 206 197 191 197
166 169 170 169 175 177 188 197 201 206 207 204 194 184 184 187 196 197 192 190 192 199 187 185 181 194 211 226 239 254 225 217 230 224 224 221 217 213 198 193 195 198 200
Height
1508 1510 1513 1515 1517 1519 1521 1523 1525 1526 1528 1529 1531 1532 1533 1534 1535 1537 1538 1539 1540 1541 1542 1543 1544 1545 1546 1547 1548 1549 1551 1552 1553 1553 1554 1555 1556 1558 1559 1560 1561 1561 1563
1507 1511 1514 1516 1518 1521 1523 1525 1527 1528 1530 1531 1533 1534 1535 1537 1538 1539 1540 1541 1542 1544 1544 1545 1546 1548 1549 1550 1551 1552 1553 1554 1555 1556 1557 1558 1559 1560 1561 1563 1563 1564 1565
1508 1512 1515 1517 1520 1522 1525 1527 1529 1530 1532 1534 1535 1537 1538 1539 1540 1542 1543 1544 1545 1546 1547 1548 1549 1550 1551 1552 1553 1555 1556 1557 1558 1559 1560 1561 1562 1563 1564 1565 1566 1567 1568
1510 1513 1516 1519 1522 1524 1526 1529 1531 1532 1534 1536 1537 1539 1540 1542 1543 1544 1545 1546 1547 1548 1549 1550 1551 1552 1554 1555 1556 1557 1559 1560 1561 1562 1564 1564 1564 1565 1567 1567 1568 1570 1571
1512 1515 1517 1520 1523 1526 1528 1530 1532 1534 1536 1538 1539 1541 1542 1544 1545 1546 1547 1548 1550 1551 1552 1553 1554 1555 1556 1557 1559 1560 1561 1562 1564 1565 1566 1566 1567 1568 1569 1570 1571 1572 1573
1513 1516 1519 1522 1525 1527 1529 1532 1534 1536 1538 1539 1541 1543 1544 1546 1547 1548 1549 1550 1552 1553 1554 1555 1556 1557 1558 1560 1561 1562 1564 1565 1567 1568 1568 1568 1569 1570 1571 1572 1573 1575 1576
1515 1517 1520 1523 1526 1528 1531 1533 1535 1537 1539 1541 1543 1544 1546 1547 1549 1550 1551 1553 1554 1555 1556 1557 1559 1560 1561 1562 1563 1565 1566 1567 1569 1570 1570 1571 1571 1572 1574 1575 1576 1577 1578
1516 1519 1522 1525 1527 1530 1532 1535 1537 1539 1541 1542 1544 1546 1548 1549 1551 1552 1553 1555 1556 1557 1558 1560 1561 1562 1563 1564 1566 1567 1568 1569 1571 1571 1571 1573 1573 1575 1576 1577 1578 1579 1580
1518 1520 1523 1526 1528 1531 1533 1536 1538 1540 1542 1544 1546 1547 1549 1551 1552 1553 1555 1556 1558 1559 1560 1561 1562 1564 1565 1566 1568 1569 1570 1571 1573 1573 1573 1574 1575 1576 1577 1579 1580 1581 1582
1520 1522 1524 1527 1529 1532 1534 1537 1539 1541 1543 1545 1547 1549 1550 1552 1554 1555 1557 1558 1559 1561 1562 1563 1564 1565 1567 1568 1569 1571 1572 1573 1574 1574 1575 1576 1577 1578 1579 1580 1581 1583 1584
1521 1523 1526 1528 1530 1533 1535 1538 1540 1542 1544 1546 1548 1550 1552 1553 1555 1557 1558 1559 1561 1562 1564 1565 1566 1567 1568 1570 1571 1573 1574 1574 1576 1576 1576 1578 1578 1579 1581 1582 1583 1584 1585
1522 1525 1527 1529 1532 1535 1537 1538 1541 1543 1545 1547 1549 1551 1553 1555 1557 1558 1560 1561 1562 1564 1565 1566 1567 1569 1570 1571 1573 1574 1575 1576 1577 1577 1578 1579 1580 1581 1582 1583 1584 1585 1586
1522 1525 1527 1530 1533 1536 1538 1539 1541 1544 1545 1548 1550 1552 1554 1556 1558 1559 1560 1562 1563 1565 1566 1568 1569 1569 1571 1573 1574 1575 1576 1577 1578 1577 1578 1580 1581 1582 1583 1584 1585 1586 1587
1521 1524 1527 1529 1532 1536 1538 1540 1542 1544 1546 1548 1550 1552 1555 1557 1559 1560 1561 1562 1564 1566 1567 1569 1570 1571 1573 1574 1575 1576 1577 1578 1578 1578 1579 1580 1582 1583 1583 1585 1586 1587 1588
1520 1523 1526 1528 1532 1535 1537 1540 1543 1544 1546 1548 1550 1552 1555 1557 1559 1560 1562 1563 1565 1567 1568 1569 1571 1572 1573 1575 1576 1577 1578 1579 1579 1579 1580 1581 1582 1583 1584 1585 1586 1587 1588
1518 1522 1524 1527 1530 1533 1536 1539 1542 1544 1546 1548 1550 1552 1554 1557 1559 1560 1562 1563 1565 1567 1568 1570 1571 1572 1574 1575 1576 1577 1578 1579 1579 1580 1580 1581 1582 1583 1584 1585 1586 1587 1588
1517 1520 1523 1525 1528 1531 1534 1537 1541 1543 1545 1547 1549 1551 1553 1556 1558 1560 1561 1563 1565 1567 1568 1570 1571 1572 1574 1575 1576 1577 1578 1579 1580 1580 1580 1581 1582 1583 1584 1585 1586 1587 1588
1515 1518 1521 1524 1526 1529 1532 1535 1539 1542 1544 1545 1547 1549 1552 1555 1556 1558 1561 1563 1564 1566 1568 1569 1571 1572 1574 1575 1576 1577 1578 1579 1580 1580 1581 1581 1582 1583 1584 1585 1586 1587 1588
1512 1515 1518 1522 1524 1527 1529 1533 1536 1539 1541 1543 1546 1548 1550 1553 1555 1557 1560 1562 1563 1565 1567 1569 1570 1572 1573 1574 1575 1576 1577 1578 1579 1580 1581 1582 1582 1583 1583 1584 1585 1586 1587
1511 1514 1516 1519 1522 1524 1527 1530 1533 1537 1539 1541 1544 1546 1548 1551 1553 1555 1558 1560 1562 1564 1566 1568 1569 1571 1572 1574 1575 1576 1577 1578 1578 1579 1580 1581 1582 1582 1582 1583 1584 1585 1586
1509 1511 1514 1516 1519 1521 1524 1526 1530 1533 1536 1539 1542 1544 1547 1549 1551 1554 1557 1558 1560 1563 1564 1566 1568 1569 1571 1573 1574 1575 1576 1577 1577 1578 1579 1580 1581 1582 1582 1583 1583 1584 1584
1506 1508 1511 1513 1516 1518 1521 1524 1527 1531 1534 1536 1539 1542 1544 1547 1549 1552 1554 1556 1559 1561 1563 1565 1566 1568 1570 1572 1573 1574 1575 1577 1576 1577 1578 1579 1580 1581 1581 1582 1582 1583 1583
1503 1506 1508 1511 1513 1516 1519 1522 1526 1529 1532 1535 1537 1539 1542 1544 1547 1550 1552 1555 1557 1559 1561 1563 1564 1566 1568 1570 1572 1573 1574 1574 1575 1576 1576 1577 1578 1579 1580 1581 1581 1581 1582
1501 1504 1507 1509 1512 1514 1517 1520 1523 1525 1528 1531 1534 1537 1539 1542 1544 1547 1550 1552 1555 1557 1559 1561 1562 1565 1567 1568 1570 1571 1573 1573 1574 1574 1575 1575 1576 1577 1578 1579 1579 1579 1580
1500 1503 1505 1507 1510 1512 1515 1518 1521 1524 1527 1529 1532 1535 1537 1539 1541 1544 1547 1550 1552 1554 1557 1559 1560 1562 1564 1566 1568 1570 1571 1572 1572 1573 1573 1574 1574 1575 1576 1577 1577 1578 1578
1499 1501 1503 1505 1508 1510 1513 1515 1518 1521 1524 1527 1529 1531 1534 1536 1539 1541 1544 1547 1549 1552 1554 1556 1558 1560 1562 1564 1566 1567 1569 1570 1570 1571 1571 1571 1572 1573 1573 1574 1575 1575 1576